Waarnemingen

Advertentie
Mijn weer
Lulea/Kallax, Zweden (2186): temperatuur & dauwpunt: 12.08.2019 03:00:00 - 18.08.2019 03:00:00 (CEST)Lulea/Kallax, Zweden (2186): windsnelheid & windstoten: 12.08.2019 03:00:00 - 18.08.2019 03:00:00 (CEST)Lulea/Kallax, Zweden (2186): windrichting: 12.08.2019 03:00:00 - 18.08.2019 03:00:00 (CEST)Lulea/Kallax, Zweden (2186): luchtdruk: 12.08.2019 03:00:00 - 18.08.2019 03:00:00 (CEST)Lulea/Kallax, Zweden (2186): zicht: 12.08.2019 03:00:00 - 18.08.2019 03:00:00 (CEST)Lulea/Kallax, Zweden (2186): neerslag: 12.08.2019 03:00:00 - 18.08.2019 03:00:00 (CEST)
Datum & Tijd tt [°C] td [°C] ff [km/u] ff [kn] fx [km/u] fx [kn] dd ppp [hPa] vv [km] rr [mm]
18.08.2019 03:00:00 15,7 13,9 24 13 40 21 Z 1007,2 10 0,0
18.08.2019 02:00:00 15,7 13,9 24 13 36 19 Z 1007,2 10 0,0
18.08.2019 01:00:00 15,8 13,8 22 12 32 18 Z 1007,2 10 0,0
18.08.2019 00:00:00 15,7 13,0 22 12 40 21 Z 1006,9 10 0,0
17.08.2019 23:00:00 15,4 13,1 24 13 43 23 Z 1006,9 10 0,0
17.08.2019 22:00:00 15,8 12,5 26 14 43 23 Z 1006,9 10 0,0
17.08.2019 21:00:00 16,3 13,4 28 15 43 23 Z 1006,9 10 0,0
17.08.2019 20:00:00 16,5 14,7 26 14 36 19 ZZO 1007,1 10 0,0
17.08.2019 19:00:00 16,8 14,8 26 14 36 19 Z 1007,0 10 0,0
17.08.2019 18:00:00 17,1 14,7 26 14 36 19 Z 1007,2 10 0,0
17.08.2019 17:00:00 17,1 14,9 18 10 29 16 Z 1007,5 10 0,0
17.08.2019 16:00:00 17,5 15,1 22 12 36 19 Z 1007,6 10 0,0
17.08.2019 15:00:00 17,4 15,0 22 12 36 19 Z 1008,0 10 0,0
17.08.2019 14:00:00 17,4 15,0 21 11 36 19 Z 1008,1 10 0,0
17.08.2019 13:00:00 17,3 14,6 22 12 36 19 Z 1008,2 10 0,0
17.08.2019 12:00:00 17,1 14,7 22 12 32 18 Z 1008,2 10 0,0
17.08.2019 11:00:00 16,6 14,4 22 12 32 18 Z 1008,1 10 0,0
17.08.2019 10:00:00 16,6 14,4 18 10 29 16 Z 1007,9 10 0,0
17.08.2019 09:00:00 16,2 14,7 16 9 25 14 Z 1007,9 10 0,0
17.08.2019 08:00:00 15,9 14,3 16 9 25 14 Z 1007,9 10 0,0
17.08.2019 07:00:00 16,0 14,4 15 8 25 14 Z 1008,1 10 0,0
17.08.2019 06:00:00 15,8 13,8 16 9 25 14 Z 1008,0 10 0,0
17.08.2019 05:00:00 15,7 13,7 16 9 29 16 Z 1008,2 10 0,0
17.08.2019 04:00:00 15,6 14,0 16 9 32 18 ZZW 1008,4 10 0,0
17.08.2019 03:00:00 15,4 13,6 15 8 32 18 ZZW 1008,5 10 0,0
17.08.2019 02:00:00 15,2 13,2 21 11 29 16 Z 1008,5 10 0,0
17.08.2019 01:00:00 15,8 11,8 15 8 25 14 ZZW 1008,4 10 0,0
17.08.2019 00:00:00 15,9 12,8 16 9 25 14 ZZW 1008,4 10 0,0
16.08.2019 23:00:00 16,0 12,6 13 7 25 14 ZZW 1008,3 10 0,0
16.08.2019 22:00:00 16,3 12,5 15 8 29 16 ZZW 1008,2 10 0,0
16.08.2019 21:00:00 16,8 12,5 16 9 25 14 Z 1008,0 10 0,0
16.08.2019 20:00:00 16,7 13,2 16 9 29 16 Z 1008,0 10 0,0
16.08.2019 19:00:00 17,3 13,6 15 8 25 14 Z 1007,9 10 0,0
16.08.2019 18:00:00 17,9 13,0 18 10 25 14 Z 1008,0 10 0,0
16.08.2019 17:00:00 18,1 12,1 16 9 25 14 Z 1008,3 10 0,0
16.08.2019 16:00:00 17,7 13,6 18 10 29 16 Z 1008,6 10 0,0
16.08.2019 15:00:00 17,1 13,6 18 10 25 14 Z 1008,5 10 0,0
16.08.2019 14:00:00 17,1 14,2 21 11 25 14 Z 1008,5 10 0,0
16.08.2019 13:00:00 17,5 13,8 11 6 18 10 ZZO 1008,4 10 0,0
16.08.2019 12:00:00 17,1 13,8 11 6 14 8 ZO 1008,3 10 0,0
16.08.2019 11:00:00 16,2 13,7 9 5 11 6 ZO 1008,1 10 0,0
16.08.2019 10:00:00 15,3 13,1 8 4 11 6 ZZO 1007,9 10 0,0
16.08.2019 09:00:00 14,8 12,8 2 1 7 4 - 1007,7 10 0,0
16.08.2019 08:00:00 13,8 12,5 5 3 14 8 N 1007,3 10 0,0
16.08.2019 07:00:00 13,3 13,0 8 4 14 8 N 1006,8 10 0,0
16.08.2019 06:00:00 12,0 11,7 4 2 7 4 NNW 1006,5 10 0,0
16.08.2019 05:00:00 11,1 10,8 4 2 7 4 WNW 1006,3 0,2 0,0
16.08.2019 04:00:00 11,5 11,2 5 3 7 4 NW 1005,9 1,2 0,0
16.08.2019 03:00:00 11,8 11,5 4 2 4 2 NW 1005,6 10 0,0
16.08.2019 02:00:00 11,8 11,3 2 1 4 2 WNW 1005,2 0,3 0,0
16.08.2019 01:00:00 12,6 12,0 4 2 11 6 WNW 1004,9 10 0,0
16.08.2019 00:00:00 13,9 13,1 5 3 7 4 NNW 1004,4 10 0,0
15.08.2019 23:00:00 14,3 13,8 2 1 14 8 - 1003,8 10 0,0
15.08.2019 22:00:00 14,3 13,5 11 6 14 8 NNW 1003,7 10 0,0
15.08.2019 21:00:00 15,0 14,0 9 5 11 6 WNW 1003,4 10 0,0
15.08.2019 20:00:00 15,4 14,3 8 4 14 8 WNW 1003,0 10 0,6
15.08.2019 19:00:00 15,6 13,6 11 6 18 10 NW 1002,7 10 0,3
15.08.2019 18:00:00 16,2 13,7 11 6 14 8 NW 1002,4 10 0,0
15.08.2019 17:00:00 16,7 14,0 11 6 14 8 WNW 1002,0 10 0,0
15.08.2019 16:00:00 17,0 14,3 5 3 14 8 W 1001,8 10 0,0
15.08.2019 15:00:00 17,5 14,0 4 2 11 6 - 1001,5 10 0,0
15.08.2019 14:00:00 16,1 14,3 4 2 7 4 - 1001,4 10 0,1
15.08.2019 13:00:00 15,4 14,3 2 1 14 8 - 1001,2 10 2,0
15.08.2019 12:00:00 15,0 14,0 5 3 18 10 NNO 1001,0 10 2,0
15.08.2019 11:00:00 15,9 14,3 9 5 14 8 NNW 1000,8 10 0,3
15.08.2019 10:00:00 14,6 14,0 8 4 14 8 NNW 1000,9 10 3,0
15.08.2019 09:00:00 15,1 14,0 9 5 14 8 NNW 1000,8 10 0,0
15.08.2019 08:00:00 15,0 13,9 5 3 7 4 N 1000,7 10 0,0
15.08.2019 07:00:00 14,4 13,8 2 1 4 2 - 1000,7 10 0,0
15.08.2019 06:00:00 14,2 13,4 2 1 11 6 O 1000,8 10 1,0
15.08.2019 05:00:00 14,3 13,7 5 3 11 6 N 1000,7 10 0,3
15.08.2019 04:00:00 14,5 13,9 4 2 7 4 - 1000,8 10 0,0
15.08.2019 03:00:00 14,5 13,7 5 3 7 4 NNW 1000,7 10 0,0
15.08.2019 02:00:00 14,4 13,4 2 1 4 2 ONO 1000,8 10 0,0
15.08.2019 01:00:00 14,8 13,5 2 1 7 4 ZZO 1000,8 10 0,0
15.08.2019 00:00:00 14,9 13,4 2 1 4 2 O 1000,8 10 0,0
14.08.2019 23:00:00 15,0 13,4 2 1 7 4 - 1001,1 10 0,0
14.08.2019 22:00:00 14,9 13,3 5 3 7 4 Z 1001,2 10 0,0
14.08.2019 21:00:00 15,2 13,4 9 5 18 10 Z 1001,3 10 0,0
14.08.2019 20:00:00 15,5 13,9 11 6 22 12 ZO 1001,1 10 0,0
14.08.2019 19:00:00 16,2 13,9 9 5 14 8 ZZO 1000,9 10 0,0
14.08.2019 18:00:00 16,3 13,8 9 5 22 12 Z 1000,9 10 0,0
14.08.2019 17:00:00 16,7 14,0 13 7 22 12 ZZO 1001,0 10 0,0
14.08.2019 16:00:00 16,5 14,1 13 7 18 10 ZO 1001,1 10 0,0
14.08.2019 15:00:00 17,5 14,6 13 7 18 10 ZZO 1001,1 10 0,0
14.08.2019 14:00:00 16,5 14,5 13 7 18 10 ZO 1001,3 10 0,0
14.08.2019 13:00:00 16,4 14,2 16 9 32 18 ZZO 1001,3 10 0,0
14.08.2019 12:00:00 15,9 14,1 18 10 22 12 ZZO 1001,4 10 0,0
14.08.2019 11:00:00 16,0 14,4 13 7 18 10 ZO 1001,2 10 0,0
14.08.2019 10:00:00 15,9 14,4 15 8 18 10 ZO 1001,2 10 0,0
14.08.2019 09:00:00 15,6 14,6 15 8 18 10 ZO 1001,3 10 0,0
14.08.2019 08:00:00 15,1 14,5 15 8 22 12 ZZO 1001,3 10 0,0
14.08.2019 07:00:00 14,9 14,4 15 8 18 10 ZZO 1001,4 10 9,0
14.08.2019 06:00:00 14,5 14,2 13 7 22 12 ZZO 1001,3 1,0 30,0
14.08.2019 05:00:00 14,7 14,2 5 3 7 4 O 1001,5 10 0,5
14.08.2019 04:00:00 14,8 14,2 5 3 11 6 O 1001,6 10 0,0
14.08.2019 03:00:00 14,7 13,9 5 3 11 6 OZO 1001,8 10 0,0
14.08.2019 02:00:00 15,0 14,0 8 4 11 6 OZO 1001,9 10 0,0
14.08.2019 01:00:00 15,1 14,0 8 4 11 6 OZO 1002,0 10 0,0
14.08.2019 00:00:00 15,2 14,2 8 4 14 8 OZO 1002,2 10 0,0
13.08.2019 23:00:00 15,2 14,1 9 5 18 10 ZZO 1002,4 10 0,0
13.08.2019 22:00:00 15,4 14,3 15 8 22 12 ZZO 1002,3 10 0,0
13.08.2019 21:00:00 15,3 14,2 11 6 14 8 ZO 1002,5 10 0,0
13.08.2019 20:00:00 15,3 14,2 9 5 14 8 ZO 1002,7 10 0,0
13.08.2019 19:00:00 15,8 13,5 9 5 18 10 ZO 1002,7 10 0,0
13.08.2019 18:00:00 15,8 13,6 13 7 18 10 ZZO 1002,7 10 0,0
13.08.2019 17:00:00 15,7 14,4 8 4 14 8 ZO 1002,7 10 0,0
13.08.2019 16:00:00 15,4 14,8 13 7 14 8 ZZO 1002,8 5 0,1
13.08.2019 15:00:00 15,9 14,8 15 8 25 14 ZO 1002,8 10 0,0
13.08.2019 14:00:00 16,0 14,4 11 6 18 10 ZO 1002,9 10 0,0
13.08.2019 13:00:00 15,9 14,4 15 8 18 10 ZZO 1003,3 10 0,0
13.08.2019 12:00:00 15,3 14,3 13 7 18 10 ZZO 1003,4 10 0,0
13.08.2019 11:00:00 15,8 14,3 13 7 18 10 ZZO 1003,4 10 0,0
13.08.2019 10:00:00 15,9 14,4 15 8 18 10 ZZO 1003,4 10 0,0
13.08.2019 09:00:00 15,5 14,4 15 8 22 12 ZZO 1003,2 10 0,0
13.08.2019 08:00:00 15,5 14,4 9 5 18 10 ZO 1003,1 10 0,0
13.08.2019 07:00:00 15,6 14,6 13 7 18 10 ZZO 1003,2 10 0,0
13.08.2019 06:00:00 15,4 14,4 13 7 18 10 ZZO 1003,3 10 0,0
13.08.2019 05:00:00 15,4 14,3 13 7 18 10 ZZO 1003,4 10 0,0
13.08.2019 04:00:00 15,3 14,7 16 9 22 12 ZZO 1003,5 10 0,0
13.08.2019 03:00:00 15,3 14,5 21 11 25 14 ZZO 1003,7 10 0,0
13.08.2019 02:00:00 15,3 14,5 18 10 25 14 ZZO 1003,8 9 0,2
13.08.2019 01:00:00 15,2 14,4 16 9 22 12 ZZO 1003,9 10 0,0
13.08.2019 00:00:00 15,3 14,3 15 8 22 12 ZZO 1003,9 10 0,0
12.08.2019 23:00:00 15,3 14,3 13 7 25 14 Z 1003,8 10 0,0
12.08.2019 22:00:00 15,4 14,4 16 9 25 14 Z 1003,8 10 0,0
12.08.2019 21:00:00 15,4 14,3 16 9 25 14 Z 1004,0 10 0,0
12.08.2019 20:00:00 15,6 14,5 18 10 25 14 ZZO 1003,9 10 0,0
12.08.2019 19:00:00 15,7 14,7 15 8 22 12 ZZO 1003,7 10 0,0
12.08.2019 18:00:00 15,9 14,9 15 8 22 12 Z 1003,7 10 0,0
12.08.2019 17:00:00 16,0 14,9 15 8 25 14 Z 1003,8 10 0,0
12.08.2019 16:00:00 16,0 15,2 16 9 29 16 Z 1004,0 10 0,0
12.08.2019 15:00:00 15,9 15,3 16 9 22 12 ZZO 1004,0 10 0,0
12.08.2019 14:00:00 15,8 15,3 15 8 22 12 ZZO 1004,0 10 3,0
12.08.2019 13:00:00 15,3 14,8 9 5 22 12 ZO 1004,3 10 4,0
12.08.2019 12:00:00 15,0 14,5 9 5 18 10 OZO 1004,7 10 0,4
12.08.2019 11:00:00 14,7 14,2 11 6 22 12 OZO 1005,0 3,0 0,0
12.08.2019 10:00:00 14,6 14,0 15 8 22 12 ZO 1005,1 10 0,2
12.08.2019 09:00:00 14,5 13,9 13 7 18 10 ZO 1005,1 5 0,0
12.08.2019 08:00:00 14,2 13,6 15 8 22 12 ZO 1005,3 7 0,0
12.08.2019 07:00:00 14,9 12,9 16 9 22 12 ZO 1005,5 10 0,0
12.08.2019 06:00:00 15,2 13,0 18 10 25 14 ZZO 1005,8 10 0,0
12.08.2019 05:00:00 15,2 12,9 16 9 22 12 ZZO 1006,1 10 0,0
12.08.2019 04:00:00 15,2 12,7 16 9 25 14 ZO 1006,4 10 0,0
12.08.2019 03:00:00 15,7 13,2 18 10 25 14 ZZO 1006,7 10 0,0

tt = temperatuur
td = dauwpunt
ff = windsnelheid
fx = windstoten
dd = windrichting
ppp = luchtdruk
vv = zicht
rr = neerslag

Weerstations in de omgeving